#timestamp,LO_Frequency,Hit,StdDev 
1715785215.5,286046997.1,P
1715785235.4,286046997.5,N
1715785255.2,286046996.7,N
1715785275.0,286046996.5,N
1715785275.9,286046996.5,N
1715785295.8,286046996.6,N
1715785315.6,286046996.6,N
1715785335.5,286046999.4,N
1715785355.3,286046996.9,N
1715785375.1,286046997.3,N
1715785395.9,286046997.0,N
1715785415.7,286046997.4,N
1715785435.5,286046997.1,N
1715785455.4,286046996.9,N
1715785475.2,286046999.1,N
1715785495.0,286046999.6,N
1715785496.0,286046999.6,N
1715785515.8,286046999.4,N
1715785535.6,286046999.6,N
1715785555.5,286046998.7,N
1715785575.3,286046999.6,N
1715785595.1,286046999.6,N
1715785615.9,286046998.9,N
1715785635.7,286046996.5,N
1715785655.5,286046997.5,N
1715785675.4,286046995.5,Y
1715785695.2,286046997.0,P
1715785715.1,286046997.2,P
1715785716.0,286046997.2,P
1715785735.8,286046996.9,Y
1715785755.6,286046999.9,P
1715785775.5,286046999.7,N
1715785795.3,286047000.6,N
1715785815.2,286047000.8,N
1715785835.9,286047001.1,N
1715785855.7,286047000.7,N
1715785875.6,286047000.0,N
1715785895.4,286047000.9,N
1715785915.2,286047000.5,N
1715785935.1,286047000.1,N
1715785936.0,286047000.1,N
1715785955.8,286047002.0,N
1715785975.6,286047000.3,N
1715785995.5,286047000.9,N
1715786015.3,286046999.7,N
1715786035.2,286046999.9,N
1715786055.0,286047002.1,N
1715786055.9,286047002.1,N
1715786075.8,286047002.0,N
1715786095.6,286047000.1,N
1715786115.4,286047002.3,N
1715786135.3,286047000.0,N
1715786155.1,286047000.3,N
1715786156.0,286047000.3,N
1715786175.8,286047001.0,N
1715786195.7,286047000.8,N
1715786215.5,286047000.4,N
1715786235.4,286046999.7,N
1715786255.2,286046999.9,N
1715786275.0,286047001.2,N
1715786275.9,286047001.2,N
1715786295.8,286047000.8,N
1715786315.6,286046998.7,N
1715786335.4,286046998.4,N
1715786355.3,286046998.4,N
1715786375.1,286047001.2,N
1715786395.9,286047011.9,Y
1715786415.7,286047001.2,P
1715786435.5,286046998.2,P
1715786455.4,286047001.1,N
1715786475.2,286047001.1,N
1715786495.0,286047000.3,N
1715786495.9,286047000.3,N
1715786515.8,286047000.5,N
1715786535.6,286046998.1,N
1715786555.5,286047000.8,N
1715786575.3,286046998.4,N
1715786595.1,286046998.7,N
1715786615.9,286046997.1,N
1715786635.7,286046997.4,N
1715786655.5,286046996.5,N
1715786675.4,286046996.8,N
1715786695.2,286046996.6,N
1715786715.1,286046997.0,N
1715786716.0,286046997.0,N
1715786735.8,286046997.1,N
1715786755.6,286046997.5,N
1715786775.5,286046997.9,N
1715786795.3,286046997.3,N
1715786815.1,286046996.7,N
1715786835.9,286046999.2,N
1715786855.7,286046998.8,N
1715786875.6,286046998.7,N
1715786895.4,286046999.3,N
1715786915.2,286046998.8,N
1715786935.1,286046996.5,N
1715786936.0,286046996.5,N
1715786955.8,286046997.1,N
1715786975.6,286046996.6,N
1715786995.5,286046995.4,Y
1715787015.3,286046996.8,P
1715787035.2,286046996.6,P
1715787085.9,286046996.8,E
1715787095.8,286046998.3,N
1715787115.7,286047002.8,P
1715787135.5,286047002.3,N
1715787155.4,286047000.4,N
1715787175.2,286047000.3,N
1715787195.0,286047000.4,N
1715787195.9,286047000.4,N
1715787215.8,286047002.4,N
1715787235.6,286047002.1,N
1715787255.4,286047002.6,N
1715787275.3,286047002.4,N
1715787295.1,286047002.8,N
1715787315.9,286046999.9,N
1715787335.7,286047001.5,N
1715787355.5,286047001.9,N
1715787375.4,286047004.2,Y
1715787395.2,286046999.8,P
1715787415.0,286047002.4,P
1715787415.9,286047002.4,N
1715787435.8,286046999.9,N
1715787455.6,286047000.3,N
1715787475.5,286046999.5,N
1715787495.3,286046997.0,N
1715787515.1,286046997.7,N
1715787535.9,286046998.0,N
1715787555.7,286046994.9,N
1715787575.5,286046998.0,N
1715787595.4,286046995.2,N
1715787615.2,286046994.9,N
1715787635.1,286046995.1,N
1715787636.0,286046995.1,N
1715787655.8,286046995.7,N
1715787675.6,286046996.4,N
1715787695.5,286046993.8,N
1715787715.3,286046996.4,N
1715787735.1,286046995.8,N
1715787755.9,286046995.4,N
1715787805.7,286046996.8,E
1715787815.7,286046999.6,N
1715787835.5,286047000.2,P
1715787855.3,286047000.5,N
1715787875.2,286047002.5,Y
1715787895.0,286047002.6,P
1715787895.9,286047002.6,N
1715787915.8,286047002.6,N
1715787935.6,286047002.7,N
1715787955.4,286047001.8,N
1715787975.3,286047002.3,N
1715787995.1,286047002.1,N
1715788015.8,286047001.5,N
1715788035.7,286047001.6,N
1715788055.5,286047002.0,N
1715788075.4,286047002.3,Y
1715788095.2,286046998.2,P
1715788115.0,286047000.0,N
1715788115.9,286047000.0,N
1715788135.8,286047001.6,N
1715788155.6,286047004.4,Y
1715788175.4,286047002.6,P
1715788195.3,286047002.6,N
1715788215.1,286047001.3,N
1715788235.9,286047001.7,N
1715788285.7,286047003.6,E
1715788295.6,286047001.9,N
1715788315.5,286046999.8,P
1715788335.3,286047000.1,N
1715788355.2,286047000.0,N
1715788375.9,286047000.5,N
1715788395.7,286047000.3,N
1715788415.6,286047002.5,Y
1715788435.4,286047002.3,P
1715788455.2,286046999.8,N
1715788475.1,286047000.9,N
1715788476.0,286047000.9,N
1715788495.8,286047000.6,N
1715788515.7,286047002.8,Y
1715788535.5,286046998.2,P
1715788555.3,286046998.1,N
1715788575.2,286047000.4,N
1715788595.0,286047001.1,N
1715788595.9,286047001.1,N
1715788615.8,286047000.5,N
1715788635.6,286046999.9,N
1715788655.4,286047000.2,N
1715788675.3,286047000.3,N
1715788695.1,286046999.9,N
1715788696.0,286046999.9,N
1715788715.8,286047002.7,N
1715788735.7,286047002.3,N
1715788755.5,286047000.0,N
1715788775.4,286047000.2,N
1715788795.2,286047000.3,N
